User: anonymous   Login
Location: Unnamed
(23.5608°S, 46.6833°W)
Time: 07:19:39
(UTC-03:00)
Language:

LilacSat-2 - Orbit

View from above orbital plane
View from above orbital plane
View from above satellite
View from above satellite

Ground track
Ground track

The orbit data is extracted from the following two-line orbital elements,

1 40908U 15049K   24205.96224902  .00013494  00000-0  50790-3 0  9992
2 40908  97.5232 214.9554 0011243 211.5112 148.5455 15.27185703489108
Epoch (UTC): 23 July 2024 23:05:38
Eccentricity: 0.0011243
inclination: 97.5232°
perigee height: 476 km
apogee height: 492 km
right ascension of ascending node: 214.9554°
argument of perigee: 211.5112°
revolutions per day: 15.27185703
mean anomaly at epoch: 148.5455°
orbit number at epoch: 48910

The dashed part of the orbit path shows where the satellite is in the earth's shadow,  

DLR